Home > Weather > Alpena > Past weeks

Flag for U.S.A. Weather for the Past 2 Weeks in Alpena, Michigan, U.S.A.

Now
27 °F

Overcast.


Feels Like: 18 °F
Forecast: 21 / 32 °F
Wind: 9 mph from Southwest

Location: Alpena County Regional Airport

Current Time: Feb 6, 2016 at 9:21:53 AM

Latest Report: Feb 6, 2016 at 8:54 AM


Visibility: 8 mi

Pressure: 30.14 "Hg

Humidity: 69%

Dew point: 18 °F

Location of AlpenaLocation

Historic Weather in Alpena — Graph

°F

Alpena Temperature Yesterday

Maximum temperature yesterday: 29 °F (at 1:54 PM)
Minimum temperature yesterday: 14 °F (at 8:54 PM)
Average temperature yesterday: 22 °F

High & Low Weather Summary for the Past Weeks

 TemperatureHumidityPressure
High42 °F (Jan 30, 3:54 PM)100% (Feb 3, 8:54 AM)30.36 "Hg (Feb 3, 8:54 AM)
Low11 °F (Jan 23, 9:54 PM)42% (Jan 29, 3:54 PM)29.40 "Hg (Jan 28, 11:04 AM)
Average27 °F79%29.91 "Hg
* Reported Jan 22 7:54 AM — Feb 6 7:54 AM, Alpena, Weather by CustomWeather, © 2016

Note: Actual official high and low records may vary slightly from our data, if they occured in-between our weather recording intervals... More about our weather records

Advertising

Alpena Weather History for the Previous 24 Hours

 ConditionsComfort  
Time TempWeatherWind HumidityBarometerVisibility
7:54 AM
Sat, Feb 6
24 °FOvercast.7 mph75%30.15 "Hg10 mi
6:54 AM23 °FOvercast.8 mph74%30.16 "Hg10 mi
5:54 AM23 °FOvercast.7 mph74%30.17 "Hg10 mi
4:54 AM22 °FOvercast.7 mph78%30.18 "Hg10 mi
3:54 AM22 °FOvercast.6 mph78%30.19 "Hg10 mi
2:54 AM22 °FOvercast.7 mph78%30.20 "Hg10 mi
1:54 AM21 °FOvercast.5 mph81%30.21 "Hg10 mi
12:54 AM17 °FPassing clouds.No wind88%30.24 "Hg10 mi
11:54 PM
Fri, Feb 5
17 °FClear.No wind88%30.26 "Hg10 mi
10:54 PM15 °FClear.No wind87%30.27 "Hg10 mi
9:54 PM18 °FClear.3 mph88%30.29 "Hg10 mi
8:54 PM14 °FClear.No wind92%30.31 "Hg10 mi
7:54 PM17 °FClear.No wind88%30.31 "Hg10 mi
6:54 PM21 °FClear.No wind88%30.31 "Hg10 mi
5:54 PM27 °FPassing clouds.3 mph75%30.30 "Hg10 mi
4:54 PM28 °FOvercast.3 mph75%30.29 "Hg10 mi
3:54 PM29 °FOvercast.3 mph72%30.29 "Hg10 mi
2:54 PM28 °FLight snow. Overcast.No wind75%30.28 "Hg2 mi
1:54 PM29 °FLight snow. Mostly cloudy.7 mph72%30.29 "Hg7 mi
12:54 PM28 °FMostly cloudy.8 mph75%30.30 "Hg10 mi
12:01 PM28 °FCloudy.6 mph72%30.27 "Hg10 mi
10:54 AM26 °FLight snow. Overcast.6 mph74%30.31 "Hg9 mi
9:54 AM24 °FOvercast.8 mph77%30.30 "Hg10 mi
Weather by CustomWeather, © 2016

See weather overviewHow to use our weather pages